User: anonymous   Login
Location: Chervonnoye
(48.6000°N, 34.4000°E)
Time: 15:32:58
(UTC+00:00)
Language:

BADR-B - Orbit

View from above orbital plane
View from above orbital plane
View from above satellite
View from above satellite

Ground track
Ground track

The orbit data is extracted from the following two-line orbital elements,

1 27003U 01056C   21168.93500108 -.00000017  00000-0  31287-4 0  9992
2 27003  99.5641 305.0484 0020777 146.1753 214.0723 13.70258174975954
Epoch (UTC): 17 June 2021 22:26:24
Eccentricity: 0.0020777
inclination: 99.5641°
perigee height: 983 km
apogee height: 1014 km
right ascension of ascending node: 305.0484°
argument of perigee: 146.1753°
revolutions per day: 13.70258174
mean anomaly at epoch: 214.0723°
orbit number at epoch: 97595

The dashed part of the orbit path shows where the satellite is in the earth's shadow,  

DLR